EZY5615 EGNT-LTBS

Flight info

Callsign EZY5615
Flight time N/A
Altitude 35000
Route GIRLI P18 GASKO UY250 MAMUL L603 LAMSO DCT EVELI DCT NIGUG DCT TIVUN DCT ESAMA DCT OSBIT DCT TENLO DCT LAMSI DCT SITNI DCT SASAL DCT SOGMO DCT BABIT DCT KOTUS DCT OKLOP DCT NISVA DCT USALI DCT OTKOK DCT RODIP UN131 DUGLA UT350 NEXAM
Aircraft A320/M-SDE2E3FGHIJ1RWXYZ/LB1

Departure

Time 2026-04-27 14:54
Airport Newcastle International Airport (EGNT)

Arrival

Time N/A
Airport Dalaman International Airport (LTBS)
Time Latitude Longitude Altitude Speed Heading
2026-04-27 14:27 55.03661 -1.70711 267 ft 0 kts
2026-04-27 14:42 55.03648 -1.70713 267 ft 4 kts
2026-04-27 14:42 55.03626 -1.70716 267 ft 4 kts
2026-04-27 14:42 55.03603 -1.70708 267 ft 4 kts 311°
2026-04-27 14:43 55.03592 -1.70668 267 ft 3 kts 274°
2026-04-27 14:43 55.03591 -1.70623 267 ft 4 kts 270°
2026-04-27 14:43 55.03592 -1.70576 267 ft 4 kts 266°
2026-04-27 14:43 55.03593 -1.70539 267 ft 0 kts 264°
2026-04-27 14:49 55.03593 -1.70541 267 ft 1 kts 264°
2026-04-27 14:49 55.03591 -1.70579 267 ft 5 kts 263°
2026-04-27 14:49 55.03561 -1.70635 267 ft 8 kts 205°
2026-04-27 14:50 55.03517 -1.70643 267 ft 5 kts 181°
2026-04-27 14:50 55.03487 -1.70645 267 ft 3 kts 181°
2026-04-27 14:50 55.03472 -1.70645 267 ft 1 kts 181°
2026-04-27 14:50 55.03467 -1.70646 267 ft 1 kts 181°
2026-04-27 14:51 55.03466 -1.70646 267 ft 0 kts 181°
2026-04-27 14:52 55.03456 -1.70646 267 ft 3 kts 182°
2026-04-27 14:52 55.03413 -1.70617 267 ft 12 kts 142°
2026-04-27 14:53 55.03398 -1.70463 266 ft 14 kts 64°
2026-04-27 14:53 55.03411 -1.70415 266 ft 20 kts 65°
2026-04-27 14:53 55.03583 -1.69773 260 ft 92 kts 65°
2026-04-27 14:53 55.03933 -1.68450 253 ft 146 kts 65°
2026-04-27 14:54 55.04363 -1.66817 908 ft 144 kts 63°
2026-04-27 14:54 55.04783 -1.65218 1522 ft 151 kts 61°
2026-04-27 14:54 55.05256 -1.63453 1757 ft 172 kts 62°
2026-04-27 14:54 55.05795 -1.61435 1951 ft 195 kts 62°
2026-04-27 14:55 55.06390 -1.59193 2426 ft 207 kts 63°
2026-04-27 14:55 55.06678 -1.56714 3059 ft 218 kts 95°
2026-04-27 14:55 55.06009 -1.54310 3653 ft 233 kts 132°
2026-04-27 14:55 55.04528 -1.53090 4265 ft 237 kts 180°
2026-04-27 14:56 55.02948 -1.53405 5065 ft 236 kts 188°
2026-04-27 14:56 55.01283 -1.54097 5326 ft 258 kts 202°
2026-04-27 14:56 54.99604 -1.55408 5687 ft 276 kts 209°
2026-04-27 14:56 54.97879 -1.56989 6361 ft 282 kts 210°
2026-04-27 14:57 54.96143 -1.58630 7143 ft 286 kts 210°
2026-04-27 14:57 54.94380 -1.60274 7874 ft 289 kts 210°
2026-04-27 14:57 54.92588 -1.61900 8595 ft 292 kts 208°
2026-04-27 14:57 54.90769 -1.63513 9334 ft 296 kts 208°
2026-04-27 14:58 54.88919 -1.65124 10064 ft 299 kts 208°
2026-04-27 14:58 54.87022 -1.66756 10338 ft 320 kts 208°
2026-04-27 14:58 54.84958 -1.68527 10497 ft 341 kts 207°
2026-04-27 14:58 54.82802 -1.70369 10969 ft 349 kts 208°
2026-04-27 14:59 54.80610 -1.72242 11594 ft 353 kts 208°
2026-04-27 14:59 54.78392 -1.74136 12227 ft 357 kts 208°
2026-04-27 14:59 54.76150 -1.76048 12850 ft 361 kts 208°
2026-04-27 14:59 54.73890 -1.77974 13440 ft 365 kts 208°
2026-04-27 15:00 54.71570 -1.79819 14027 ft 370 kts 202°
2026-04-27 15:00 54.69066 -1.81003 14554 ft 377 kts 192°
2026-04-27 15:00 54.66470 -1.81800 15106 ft 380 kts 192°
2026-04-27 15:00 54.63888 -1.82600 15647 ft 384 kts 192°
2026-04-27 15:01 54.61253 -1.83429 16171 ft 387 kts 193°
2026-04-27 15:01 54.58592 -1.84271 16684 ft 390 kts 193°
2026-04-27 15:01 54.55912 -1.85121 17231 ft 392 kts 193°
2026-04-27 15:01 54.53266 -1.85955 18160 ft 384 kts 193°
2026-04-27 15:02 54.50644 -1.86782 18778 ft 384 kts 193°
2026-04-27 15:02 54.48008 -1.87613 19212 ft 388 kts 194°
2026-04-27 15:02 54.45339 -1.88451 19623 ft 392 kts 194°
2026-04-27 15:02 54.42676 -1.89288 20015 ft 396 kts 194°
2026-04-27 15:03 54.39950 -1.90147 20412 ft 401 kts 194°
2026-04-27 15:03 54.37189 -1.91019 20801 ft 405 kts 194°
2026-04-27 15:03 54.34405 -1.91896 21204 ft 409 kts 194°
2026-04-27 15:03 54.31586 -1.92778 21563 ft 414 kts 194°
2026-04-27 15:04 54.28735 -1.93652 21942 ft 419 kts 192°
2026-04-27 15:04 54.25808 -1.94018 22310 ft 428 kts 182°
2026-04-27 15:04 54.22816 -1.93539 22674 ft 435 kts 171°
2026-04-27 15:04 54.20000 -1.92264 23013 ft 440 kts 160°
2026-04-27 15:05 54.17251 -1.90151 23438 ft 442 kts 150°
2026-04-27 15:05 54.14609 -1.87603 23852 ft 443 kts 148°
2026-04-27 15:05 54.11924 -1.84853 24253 ft 444 kts 147°
2026-04-27 15:05 54.09312 -1.82080 24661 ft 444 kts 146°
2026-04-27 15:06 54.06693 -1.79268 25100 ft 443 kts 146°
2026-04-27 15:06 54.04085 -1.76476 25527 ft 443 kts 147°
2026-04-27 15:06 54.01470 -1.73719 25956 ft 442 kts 147°
2026-04-27 15:06 53.98847 -1.70993 26384 ft 441 kts 147°
2026-04-27 15:07 53.96255 -1.68325 26806 ft 441 kts 148°
2026-04-27 15:07 53.93651 -1.65661 27496 ft 430 kts 148°
2026-04-27 15:07 53.91107 -1.63068 28173 ft 423 kts 148°
2026-04-27 15:07 53.88586 -1.60494 28540 ft 425 kts 148°
2026-04-27 15:08 53.86041 -1.57886 28678 ft 432 kts 148°
2026-04-27 15:08 53.83447 -1.55227 28817 ft 438 kts 148°
2026-04-27 15:08 53.80821 -1.52540 28956 ft 445 kts 148°
2026-04-27 15:08 53.78156 -1.49819 29098 ft 451 kts 148°
2026-04-27 15:09 53.75440 -1.47050 29236 ft 458 kts 148°
2026-04-27 15:09 53.72698 -1.44260 29375 ft 464 kts 148°
2026-04-27 15:09 53.69955 -1.41469 29510 ft 469 kts 148°
2026-04-27 15:09 53.67149 -1.38618 29803 ft 471 kts 148°
2026-04-27 15:10 53.64342 -1.35774 30163 ft 471 kts 149°
2026-04-27 15:10 53.61465 -1.33149 30496 ft 470 kts 156°
2026-04-27 15:10 53.58423 -1.31185 30812 ft 467 kts 165°
2026-04-27 15:10 53.55279 -1.29887 31143 ft 463 kts 173°
2026-04-27 15:11 53.52095 -1.29257 31493 ft 458 kts 180°
2026-04-27 15:11 53.48936 -1.28507 31820 ft 461 kts 167°
2026-04-27 15:11 53.45944 -1.26551 32153 ft 462 kts 150°
2026-04-27 15:11 53.43369 -1.23410 32477 ft 458 kts 133°
2026-04-27 15:12 53.41406 -1.19364 32813 ft 451 kts 116°
2026-04-27 15:12 53.40131 -1.14653 33133 ft 440 kts 101°
2026-04-27 15:12 53.39248 -1.09754 33438 ft 439 kts 102°
2026-04-27 15:12 53.38301 -1.04874 33731 ft 440 kts 104°
2026-04-27 15:13 53.37316 -1.00038 33953 ft 441 kts 104°
2026-04-27 15:13 53.36305 -0.95184 34143 ft 442 kts 105°
2026-04-27 15:13 53.35290 -0.90317 34324 ft 443 kts 105°
2026-04-27 15:13 53.34279 -0.85427 34487 ft 445 kts 105°
2026-04-27 15:14 53.33292 -0.80592 34636 ft 446 kts 105°
2026-04-27 15:14 53.32296 -0.75671 34778 ft 447 kts 105°
2026-04-27 15:14 53.31302 -0.70747 34916 ft 449 kts 105°
2026-04-27 15:14 53.30307 -0.65788 35064 ft 450 kts 104°
2026-04-27 15:15 53.29348 -0.60823 35228 ft 451 kts 104°
2026-04-27 15:15 53.28410 -0.55813 35272 ft 452 kts 104°
2026-04-27 15:15 53.26554 -0.45767 35275 ft 452 kts 104°
2026-04-27 15:16 53.24686 -0.35807 35275 ft 452 kts 104°
2026-04-27 15:16 53.22773 -0.25794 35273 ft 453 kts 105°
2026-04-27 15:17 53.20846 -0.15800 35274 ft 452 kts 105°
2026-04-27 15:17 53.18919 -0.05822 35273 ft 452 kts 105°
2026-04-27 15:18 53.16986 0.04161 35276 ft 453 kts 105°
2026-04-27 15:18 53.15056 0.14074 35278 ft 452 kts 105°
2026-04-27 15:19 53.13108 0.24021 35283 ft 452 kts 106°
2026-04-27 15:19 53.11149 0.33971 35289 ft 452 kts 106°
2026-04-27 15:20 53.09184 0.43910 35290 ft 452 kts 106°
2026-04-27 15:20 53.07220 0.53763 35291 ft 452 kts 107°
2026-04-27 15:21 53.05233 0.63661 35290 ft 452 kts 107°
2026-04-27 15:21 53.03245 0.73570 35291 ft 452 kts 107°
2026-04-27 15:22 53.01244 0.83462 35287 ft 452 kts 107°
2026-04-27 15:22 52.99239 0.93332 35285 ft 452 kts 108°
2026-04-27 15:23 52.97486 1.03230 35286 ft 449 kts 98°
2026-04-27 15:23 52.96333 1.13452 35280 ft 450 kts 99°
2026-04-27 15:24 52.95157 1.23648 35282 ft 454 kts 99°
2026-04-27 15:24 52.93941 1.34031 35280 ft 464 kts 100°
2026-04-27 15:25 52.92694 1.44588 35283 ft 474 kts 100°
2026-04-27 15:25 52.91405 1.55425 35280 ft 478 kts 100°
2026-04-27 15:26 52.90124 1.66147 35281 ft 478 kts 101°
2026-04-27 15:26 52.88821 1.76947 35280 ft 478 kts 101°
2026-04-27 15:27 52.87507 1.87733 35282 ft 478 kts 101°
2026-04-27 15:27 52.86189 1.98466 35278 ft 478 kts 101°
2026-04-27 15:28 52.84858 2.09241 35286 ft 479 kts 101°
2026-04-27 15:28 52.83515 2.20035 35286 ft 479 kts 101°
2026-04-27 15:29 52.82167 2.30810 35274 ft 479 kts 102°
2026-04-27 15:29 52.80811 2.41513 35277 ft 479 kts 102°
2026-04-27 15:30 52.79433 2.52274 35275 ft 479 kts 102°
2026-04-27 15:30 52.78050 2.63026 35276 ft 479 kts 102°
2026-04-27 15:31 52.76659 2.73793 35281 ft 479 kts 102°
2026-04-27 15:31 52.75260 2.84556 35282 ft 479 kts 102°
2026-04-27 15:32 52.73854 2.95218 35282 ft 479 kts 103°
2026-04-27 15:32 52.71836 3.05655 35291 ft 477 kts 112°
2026-04-27 15:33 52.69434 3.15863 35289 ft 477 kts 112°
2026-04-27 15:33 52.67038 3.26062 35292 ft 477 kts 112°
2026-04-27 15:34 52.64630 3.36232 35291 ft 476 kts 113°
2026-04-27 15:34 52.61835 3.45992 35290 ft 474 kts 118°
2026-04-27 15:35 52.58881 3.55684 35289 ft 474 kts 118°
2026-04-27 15:35 52.55920 3.65380 35286 ft 474 kts 119°
2026-04-27 15:36 52.52960 3.75033 35287 ft 473 kts 119°
2026-04-27 15:36 52.50009 3.84602 35288 ft 473 kts 119°
2026-04-27 15:37 52.47029 3.94218 35284 ft 472 kts 119°
2026-04-27 15:37 52.44054 4.03807 35279 ft 472 kts 119°
2026-04-27 15:38 52.41069 4.13388 35277 ft 472 kts 120°
2026-04-27 15:38 52.38093 4.22894 35267 ft 472 kts 120°
2026-04-27 15:39 52.35101 4.32431 35264 ft 472 kts 120°
2026-04-27 15:39 52.32095 4.41972 35261 ft 472 kts 120°
2026-04-27 15:40 52.29078 4.51499 35262 ft 472 kts 120°
2026-04-27 15:40 52.26056 4.61019 35261 ft 472 kts 120°
2026-04-27 15:41 52.23042 4.70465 35263 ft 472 kts 120°
2026-04-27 15:41 52.19995 4.79954 35257 ft 473 kts 120°
2026-04-27 15:42 52.16941 4.89442 35251 ft 473 kts 121°
2026-04-27 15:42 52.13878 4.98928 35247 ft 473 kts 121°
2026-04-27 15:43 52.10808 5.08403 35239 ft 473 kts 121°
2026-04-27 15:43 52.07734 5.17870 35229 ft 474 kts 121°
2026-04-27 15:44 52.04656 5.27276 35228 ft 474 kts 122°
2026-04-27 15:44 52.01308 5.36464 35226 ft 472 kts 126°
2026-04-27 15:45 51.97694 5.45362 35226 ft 472 kts 127°
2026-04-27 15:45 51.94060 5.54219 35225 ft 473 kts 127°
2026-04-27 15:46 51.90502 5.63107 35226 ft 473 kts 126°
2026-04-27 15:46 51.86947 5.72077 35224 ft 474 kts 126°
2026-04-27 15:47 51.83377 5.81036 35205 ft 474 kts 127°
2026-04-27 15:47 51.79786 5.89967 35205 ft 474 kts 127°
2026-04-27 15:48 51.76173 5.98903 35202 ft 475 kts 127°
2026-04-27 15:49 51.70777 6.12221 35199 ft 475 kts 127°
2026-04-27 15:49 51.67151 6.21145 35200 ft 476 kts 127°
2026-04-27 15:50 51.63515 6.30051 35198 ft 476 kts 127°
2026-04-27 15:50 51.59862 6.38942 35197 ft 476 kts 127°
2026-04-27 15:51 51.56230 6.47769 35198 ft 477 kts 127°
2026-04-27 15:51 51.52570 6.56653 35194 ft 477 kts 128°
2026-04-27 15:52 51.48894 6.65536 35196 ft 477 kts 128°
2026-04-27 15:52 51.45212 6.74403 35200 ft 478 kts 128°
2026-04-27 15:53 51.41544 6.83199 35198 ft 478 kts 128°
2026-04-27 15:53 51.37846 6.92034 35201 ft 478 kts 128°
2026-04-27 15:54 51.34138 7.00873 35200 ft 478 kts 128°
2026-04-27 15:54 51.30420 7.09703 35197 ft 478 kts 128°
2026-04-27 15:55 51.26703 7.18515 35193 ft 478 kts 128°
2026-04-27 15:55 51.22998 7.27252 35188 ft 478 kts 128°
2026-04-27 15:56 51.19261 7.36034 35186 ft 478 kts 128°
2026-04-27 15:56 51.15521 7.44803 35188 ft 479 kts 128°
2026-04-27 15:57 51.11772 7.53557 35186 ft 478 kts 128°
2026-04-27 15:57 51.08037 7.62234 35184 ft 478 kts 128°
2026-04-27 15:58 51.04271 7.70948 35188 ft 478 kts 128°
2026-04-27 15:58 51.00501 7.79659 35184 ft 478 kts 128°
2026-04-27 15:59 50.96727 7.88355 35180 ft 478 kts 128°
2026-04-27 15:59 50.92930 7.96925 35176 ft 476 kts 133°
2026-04-27 16:00 50.88361 8.04366 35185 ft 471 kts 141°
2026-04-27 16:00 50.83644 8.11555 35179 ft 471 kts 140°
2026-04-27 16:01 50.78930 8.18738 35178 ft 469 kts 137°
2026-04-27 16:01 50.74263 8.25831 35181 ft 469 kts 140°
2026-04-27 16:02 50.69558 8.32968 35176 ft 470 kts 140°
2026-04-27 16:02 50.64830 8.40091 35175 ft 470 kts 141°
2026-04-27 16:03 50.60107 8.47196 35170 ft 470 kts 140°
2026-04-27 16:03 50.55373 8.54305 35168 ft 470 kts 140°
2026-04-27 16:04 50.50676 8.61338 35168 ft 470 kts 140°
2026-04-27 16:04 50.45931 8.68412 35167 ft 470 kts 140°
2026-04-27 16:05 50.41191 8.75463 35161 ft 470 kts 140°
2026-04-27 16:05 50.36467 8.82534 35164 ft 471 kts 136°
2026-04-27 16:06 50.32700 8.90901 35167 ft 477 kts 117°
2026-04-27 16:06 50.29975 9.00372 35160 ft 478 kts 116°
2026-04-27 16:07 50.27225 9.09842 35162 ft 478 kts 116°
2026-04-27 16:07 50.24456 9.19276 35169 ft 478 kts 116°
2026-04-27 16:08 50.22150 9.27123 35164 ft 478 kts 116°
2026-04-27 16:08 50.18928 9.38078 35171 ft 478 kts 116°
2026-04-27 16:09 50.16165 9.47474 35169 ft 477 kts 116°
2026-04-27 16:09 50.12467 9.59988 35173 ft 477 kts 116°
2026-04-27 16:10 50.06808 9.78648 35178 ft 475 kts 122°
2026-04-27 16:11 50.01436 9.91468 35184 ft 473 kts 125°
2026-04-27 16:12 49.96010 10.04273 35188 ft 473 kts 125°
2026-04-27 16:13 49.90567 10.17039 35187 ft 473 kts 126°
2026-04-27 16:13 49.85111 10.29780 35188 ft 472 kts 126°
2026-04-27 16:14 49.77857 10.46643 35187 ft 472 kts 126°
2026-04-27 16:15 49.70558 10.63492 35180 ft 472 kts 126°
2026-04-27 16:16 49.63251 10.80243 35164 ft 471 kts 126°
2026-04-27 16:17 49.55905 10.96934 35165 ft 471 kts 126°
2026-04-27 16:18 49.49388 11.14322 35150 ft 472 kts 118°
2026-04-27 16:19 49.46431 11.23327 35160 ft 472 kts 118°
2026-04-27 16:20 49.40477 11.41282 35164 ft 471 kts 118°
2026-04-27 16:21 49.36030 11.54672 35161 ft 471 kts 118°
2026-04-27 16:22 49.30053 11.72522 35161 ft 471 kts 118°
2026-04-27 16:22 49.25560 11.85886 35151 ft 470 kts 118°
2026-04-27 16:23 49.21062 11.99161 35156 ft 470 kts 118°
2026-04-27 16:24 49.18049 12.08031 35160 ft 470 kts 118°
2026-04-27 16:25 49.11993 12.25759 35159 ft 470 kts 118°
2026-04-27 16:26 49.05933 12.43350 35161 ft 470 kts 118°
2026-04-27 16:27 48.99824 12.60974 35152 ft 470 kts 119°
2026-04-27 16:28 48.92179 12.82866 35154 ft 470 kts 119°
2026-04-27 16:29 48.84479 13.04743 35150 ft 470 kts 119°
2026-04-27 16:30 48.78301 13.22150 35138 ft 470 kts 119°
2026-04-27 16:31 48.70517 13.43947 35130 ft 470 kts 119°
2026-04-27 16:32 48.65834 13.56940 35139 ft 471 kts 121°
2026-04-27 16:33 48.60277 13.69116 35135 ft 469 kts 127°
2026-04-27 16:33 48.56497 13.77155 35145 ft 469 kts 127°
2026-04-27 16:34 48.52737 13.85129 35137 ft 469 kts 127°
2026-04-27 16:34 48.48948 13.93123 35137 ft 469 kts 127°
2026-04-27 16:35 48.45146 14.01109 35133 ft 469 kts 127°
2026-04-27 16:36 48.39454 14.13080 35132 ft 469 kts 127°
2026-04-27 16:36 48.35686 14.20982 35135 ft 468 kts 127°
2026-04-27 16:37 48.31873 14.28932 35129 ft 468 kts 127°
2026-04-27 16:37 48.28062 14.36850 35133 ft 468 kts 127°
2026-04-27 16:38 48.24240 14.44765 35134 ft 468 kts 127°
2026-04-27 16:38 48.20446 14.52605 35139 ft 467 kts 127°
2026-04-27 16:39 48.16622 14.60482 35139 ft 467 kts 127°
2026-04-27 16:39 48.12809 14.68334 35150 ft 467 kts 127°
2026-04-27 16:40 48.08979 14.76185 35152 ft 466 kts 127°
2026-04-27 16:40 48.05176 14.83957 35154 ft 466 kts 127°
2026-04-27 16:41 48.01463 14.91889 35155 ft 466 kts 125°
2026-04-27 16:41 47.97857 14.99925 35154 ft 466 kts 124°
2026-04-27 16:42 47.94244 15.07932 35152 ft 465 kts 125°
2026-04-27 16:42 47.90613 15.15833 35150 ft 465 kts 125°
2026-04-27 16:43 47.86950 15.23754 35145 ft 465 kts 125°
2026-04-27 16:43 47.83274 15.31686 35148 ft 464 kts 126°
2026-04-27 16:44 47.79604 15.39584 35144 ft 464 kts 126°
2026-04-27 16:44 47.75930 15.47472 35149 ft 464 kts 126°
2026-04-27 16:45 47.72257 15.55347 35150 ft 463 kts 126°
2026-04-27 16:45 47.68611 15.63137 35153 ft 463 kts 126°
2026-04-27 16:46 47.64930 15.70973 35148 ft 462 kts 126°
2026-04-27 16:46 47.61254 15.78795 35148 ft 462 kts 126°
2026-04-27 16:47 47.57572 15.86600 35148 ft 462 kts 126°
2026-04-27 16:47 47.53874 15.94403 35147 ft 462 kts 126°
2026-04-27 16:48 47.50202 16.02132 35145 ft 463 kts 126°
2026-04-27 16:48 47.46501 16.09910 35144 ft 463 kts 126°
2026-04-27 16:49 47.40918 16.21573 35144 ft 464 kts 126°
2026-04-27 16:49 47.37214 16.29297 35151 ft 464 kts 126°
2026-04-27 16:50 47.33478 16.37083 35152 ft 466 kts 126°
2026-04-27 16:50 47.29675 16.44961 35169 ft 477 kts 126°
2026-04-27 16:51 47.25670 16.52880 35166 ft 486 kts 129°
2026-04-27 16:51 47.21408 16.60573 35167 ft 488 kts 131°
2026-04-27 16:52 47.17078 16.68250 35171 ft 488 kts 130°
2026-04-27 16:52 47.12787 16.75989 35170 ft 488 kts 130°
2026-04-27 16:53 47.08531 16.83749 35168 ft 488 kts 130°
2026-04-27 16:53 47.04261 16.91493 35175 ft 487 kts 130°
2026-04-27 16:54 46.99989 16.99192 35166 ft 487 kts 130°
2026-04-27 16:54 46.95732 17.06838 35167 ft 487 kts 130°
2026-04-27 16:55 46.91463 17.14484 35184 ft 484 kts 130°
2026-04-27 16:55 46.87206 17.22096 35187 ft 483 kts 130°
2026-04-27 16:56 46.82989 17.29624 35183 ft 481 kts 130°
2026-04-27 16:56 46.78754 17.37163 35180 ft 480 kts 131°
2026-04-27 16:57 46.74511 17.44684 35172 ft 480 kts 131°
2026-04-27 16:57 46.70267 17.52174 35175 ft 479 kts 131°
2026-04-27 16:58 46.66051 17.59604 35171 ft 479 kts 131°
2026-04-27 16:58 46.61808 17.67051 35179 ft 478 kts 131°
2026-04-27 16:59 46.57621 17.74574 35166 ft 478 kts 129°
2026-04-27 16:59 46.53579 17.82232 35166 ft 478 kts 129°
2026-04-27 17:00 46.47529 17.93641 35161 ft 477 kts 129°
2026-04-27 17:01 46.43444 18.01222 35155 ft 477 kts 129°
2026-04-27 17:01 46.39346 18.08787 35158 ft 477 kts 130°
2026-04-27 17:02 46.35253 18.16332 35165 ft 477 kts 130°
2026-04-27 17:02 46.31183 18.23827 35167 ft 476 kts 130°
2026-04-27 17:03 46.27096 18.31355 35167 ft 476 kts 130°
2026-04-27 17:03 46.23006 18.38851 35165 ft 475 kts 130°
2026-04-27 17:04 46.18895 18.46351 35162 ft 475 kts 130°
2026-04-27 17:04 46.14786 18.53823 35164 ft 475 kts 130°
2026-04-27 17:05 46.10681 18.61276 35164 ft 475 kts 130°
2026-04-27 17:05 46.06601 18.68688 35160 ft 475 kts 130°
2026-04-27 17:06 46.02494 18.76108 35159 ft 474 kts 130°
2026-04-27 17:06 45.98375 18.83522 35154 ft 474 kts 130°
2026-04-27 17:07 45.94278 18.90878 35156 ft 474 kts 130°
2026-04-27 17:07 45.90096 18.98197 35155 ft 474 kts 131°
2026-04-27 17:08 45.85783 19.05344 35154 ft 474 kts 132°
2026-04-27 17:08 45.81439 19.12449 35153 ft 474 kts 132°
2026-04-27 17:09 45.77119 19.19572 35155 ft 474 kts 131°
2026-04-27 17:09 45.72839 19.26672 35151 ft 474 kts 131°
2026-04-27 17:10 45.68533 19.33808 35152 ft 474 kts 131°
2026-04-27 17:10 45.64219 19.40924 35153 ft 474 kts 131°
2026-04-27 17:11 45.59891 19.48021 35154 ft 473 kts 132°
2026-04-27 17:11 45.53399 19.58644 35149 ft 473 kts 131°
2026-04-27 17:12 45.46934 19.69204 35152 ft 473 kts 131°
2026-04-27 17:13 45.42594 19.76258 35156 ft 473 kts 131°
2026-04-27 17:13 45.38254 19.83293 35151 ft 473 kts 131°
2026-04-27 17:14 45.33911 19.90317 35152 ft 473 kts 132°
2026-04-27 17:14 45.29302 19.96906 35147 ft 472 kts 139°
2026-04-27 17:15 45.24380 20.03092 35149 ft 473 kts 139°
2026-04-27 17:15 45.19456 20.09274 35139 ft 473 kts 139°
2026-04-27 17:16 45.14537 20.15441 35137 ft 473 kts 139°
2026-04-27 17:16 45.09610 20.21603 35133 ft 473 kts 139°
2026-04-27 17:17 45.04678 20.27756 35134 ft 473 kts 139°
2026-04-27 17:17 44.99740 20.33909 35129 ft 473 kts 139°
2026-04-27 17:18 44.92357 20.43061 35132 ft 473 kts 139°
2026-04-27 17:18 44.87404 20.49190 35132 ft 473 kts 139°
2026-04-27 17:19 44.82466 20.55293 35134 ft 473 kts 139°
2026-04-27 17:19 44.77542 20.61365 35130 ft 473 kts 139°
2026-04-27 17:20 44.72586 20.67450 35133 ft 473 kts 140°
2026-04-27 17:20 44.67616 20.73536 35134 ft 474 kts 140°
2026-04-27 17:21 44.62650 20.79610 35133 ft 474 kts 140°
2026-04-27 17:21 44.57674 20.85674 35129 ft 474 kts 140°
2026-04-27 17:22 44.52726 20.91686 35129 ft 474 kts 140°
2026-04-27 17:22 44.47755 20.97727 35132 ft 474 kts 140°
2026-04-27 17:23 44.42771 21.03763 35133 ft 474 kts 140°
2026-04-27 17:23 44.37779 21.09795 35130 ft 474 kts 140°
2026-04-27 17:24 44.32792 21.15801 35128 ft 474 kts 140°
2026-04-27 17:24 44.27826 21.21775 35127 ft 474 kts 140°
2026-04-27 17:25 44.22821 21.27787 35131 ft 475 kts 140°
2026-04-27 17:25 44.17819 21.33782 35122 ft 475 kts 140°
2026-04-27 17:26 44.12860 21.39868 35131 ft 475 kts 139°
2026-04-27 17:26 44.07974 21.45990 35131 ft 476 kts 139°
2026-04-27 17:27 44.03052 21.52129 35134 ft 476 kts 139°
2026-04-27 17:27 43.98114 21.58236 35134 ft 476 kts 139°
2026-04-27 17:28 43.93159 21.64321 35142 ft 475 kts 139°
2026-04-27 17:29 43.85767 21.73397 35149 ft 475 kts 139°
2026-04-27 17:29 43.80825 21.79461 35150 ft 474 kts 139°
2026-04-27 17:30 43.75880 21.85502 35155 ft 474 kts 139°
2026-04-27 17:30 43.68472 21.94529 35153 ft 474 kts 139°
2026-04-27 17:31 43.63545 22.00513 35150 ft 473 kts 139°
2026-04-27 17:31 43.58603 22.06498 35149 ft 473 kts 139°
2026-04-27 17:32 43.51194 22.15459 35146 ft 473 kts 140°
2026-04-27 17:33 43.46251 22.21428 35151 ft 472 kts 140°
2026-04-27 17:33 43.41295 22.27393 35181 ft 475 kts 140°
2026-04-27 17:34 43.36366 22.33301 35133 ft 473 kts 140°
2026-04-27 17:34 43.31439 22.39205 35132 ft 474 kts 140°
2026-04-27 17:35 43.26462 22.45150 35135 ft 475 kts 141°
2026-04-27 17:35 43.21474 22.51090 35133 ft 475 kts 141°
2026-04-27 17:36 43.16506 22.56989 35134 ft 475 kts 141°
2026-04-27 17:36 43.11510 22.62916 35133 ft 476 kts 141°
2026-04-27 17:37 43.06504 22.68851 35134 ft 476 kts 141°
2026-04-27 17:37 43.01529 22.74734 35132 ft 476 kts 141°
2026-04-27 17:38 42.96516 22.80651 35133 ft 477 kts 141°
2026-04-27 17:38 42.91627 22.86771 35133 ft 477 kts 138°
2026-04-27 17:39 42.86831 22.93049 35144 ft 477 kts 138°
2026-04-27 17:39 42.82033 22.99281 35133 ft 477 kts 139°
2026-04-27 17:40 42.77217 23.05420 35137 ft 476 kts 139°
2026-04-27 17:40 42.72365 23.11546 35137 ft 476 kts 139°
2026-04-27 17:41 42.67512 23.17681 35131 ft 476 kts 139°
2026-04-27 17:41 42.62676 23.23811 35127 ft 476 kts 139°
2026-04-27 17:42 42.57828 23.29940 35124 ft 476 kts 139°
2026-04-27 17:42 42.53008 23.36001 35126 ft 476 kts 139°
2026-04-27 17:43 42.48154 23.42096 35129 ft 476 kts 139°
2026-04-27 17:43 42.43303 23.48177 35143 ft 475 kts 139°
2026-04-27 17:44 42.38478 23.54210 35156 ft 475 kts 139°
2026-04-27 17:44 42.33620 23.60271 35163 ft 475 kts 139°
2026-04-27 17:45 42.28759 23.66322 35167 ft 475 kts 139°
2026-04-27 17:45 42.23867 23.72315 35163 ft 475 kts 140°
2026-04-27 17:46 42.18949 23.78261 35167 ft 475 kts 140°
2026-04-27 17:46 42.14032 23.84215 35165 ft 475 kts 140°
2026-04-27 17:47 42.09152 23.90122 35168 ft 475 kts 140°
2026-04-27 17:47 42.04228 23.96062 35169 ft 475 kts 140°
2026-04-27 17:48 41.99300 24.02001 35169 ft 475 kts 140°
2026-04-27 17:48 41.94413 24.07893 35165 ft 475 kts 140°
2026-04-27 17:49 41.89488 24.13808 35168 ft 475 kts 140°
2026-04-27 17:49 41.84573 24.19701 35165 ft 475 kts 140°
2026-04-27 17:50 41.79615 24.25627 35168 ft 475 kts 140°
2026-04-27 17:50 41.72208 24.34467 35170 ft 476 kts 140°
2026-04-27 17:51 41.67298 24.40300 35174 ft 476 kts 140°
2026-04-27 17:51 41.62350 24.46172 35174 ft 475 kts 140°
2026-04-27 17:52 41.57401 24.52042 35174 ft 475 kts 140°
2026-04-27 17:52 41.53294 24.56899 35178 ft 475 kts 140°
2026-04-27 17:53 41.47527 24.63694 35176 ft 475 kts 140°
2026-04-27 17:53 41.42579 24.69508 35181 ft 475 kts 140°
2026-04-27 17:54 41.37635 24.75350 35179 ft 475 kts 140°
2026-04-27 17:54 41.32714 24.81205 35180 ft 475 kts 140°
2026-04-27 17:55 41.27778 24.87047 35180 ft 474 kts 140°
2026-04-27 17:55 41.22872 24.92820 35177 ft 474 kts 140°
2026-04-27 17:56 41.17934 24.98610 35179 ft 474 kts 140°
2026-04-27 17:56 41.12990 25.04406 35175 ft 474 kts 140°
2026-04-27 17:57 41.08060 25.10203 35174 ft 473 kts 140°
2026-04-27 17:57 41.05647 25.13036 35188 ft 462 kts 140°
2026-04-27 17:57 41.03255 25.15837 35190 ft 457 kts 140°
2026-04-27 17:58 40.98493 25.21378 35191 ft 455 kts 141°
2026-04-27 17:58 40.93744 25.26894 35189 ft 454 kts 140°
2026-04-27 17:59 40.88994 25.32409 35187 ft 454 kts 141°
2026-04-27 17:59 40.84281 25.37880 35184 ft 454 kts 141°
2026-04-27 18:00 40.79539 25.43403 35180 ft 455 kts 137°
2026-04-27 18:00 40.75338 25.49662 35172 ft 456 kts 132°
2026-04-27 18:01 40.71207 25.56003 35166 ft 456 kts 133°
2026-04-27 18:01 40.67065 25.62330 35165 ft 456 kts 133°
2026-04-27 18:02 40.62950 25.68616 35168 ft 456 kts 133°
2026-04-27 18:02 40.58810 25.74934 35168 ft 456 kts 133°
2026-04-27 18:03 40.54661 25.81240 35172 ft 456 kts 133°
2026-04-27 18:03 40.50505 25.87551 35173 ft 460 kts 133°
2026-04-27 18:04 40.46646 25.93392 35180 ft 470 kts 133°
2026-04-27 18:04 40.42576 25.99498 35189 ft 481 kts 133°
2026-04-27 18:05 40.38112 26.06169 35187 ft 492 kts 133°
2026-04-27 18:05 40.33579 26.12935 35182 ft 503 kts 133°
2026-04-27 18:06 40.31270 26.16379 35473 ft 500 kts 133°
2026-04-27 18:06 40.28992 26.19777 35949 ft 493 kts 133°
2026-04-27 18:06 40.26744 26.23132 36437 ft 486 kts 133°
2026-04-27 18:06 40.24534 26.26433 36914 ft 479 kts 133°
2026-04-27 18:07 40.22358 26.29686 37395 ft 467 kts 133°
2026-04-27 18:07 40.20225 26.32860 37360 ft 466 kts 134°
2026-04-27 18:07 40.18077 26.36040 36824 ft 464 kts 134°
2026-04-27 18:07 40.15975 26.39142 36301 ft 461 kts 134°
2026-04-27 18:08 40.13853 26.42270 35804 ft 458 kts 134°
2026-04-27 18:08 40.11695 26.45315 35329 ft 455 kts 136°
2026-04-27 18:08 40.09475 26.48233 35129 ft 454 kts 138°
2026-04-27 18:08 40.07199 26.51089 35172 ft 454 kts 139°
2026-04-27 18:09 40.02629 26.56732 35157 ft 455 kts 139°
2026-04-27 18:09 39.98047 26.62491 35170 ft 455 kts 138°
2026-04-27 18:10 39.93565 26.68235 35169 ft 455 kts 137°
2026-04-27 18:10 39.89040 26.74017 35168 ft 455 kts 138°
2026-04-27 18:11 39.84521 26.79748 35156 ft 454 kts 138°
2026-04-27 18:11 39.80006 26.85446 35145 ft 454 kts 138°
2026-04-27 18:12 39.75473 26.91153 35125 ft 454 kts 138°
2026-04-27 18:12 39.70895 26.96807 35107 ft 454 kts 139°
2026-04-27 18:13 39.66297 27.02418 35099 ft 454 kts 139°
2026-04-27 18:13 39.61698 27.08022 35092 ft 453 kts 139°
2026-04-27 18:14 39.57133 27.13582 35099 ft 453 kts 139°
2026-04-27 18:14 39.52544 27.19184 35102 ft 453 kts 139°
2026-04-27 18:15 39.47589 27.24121 35105 ft 448 kts 153°
2026-04-27 18:15 39.42156 27.28059 35111 ft 448 kts 153°
2026-04-27 18:16 39.36717 27.32003 35116 ft 448 kts 153°
2026-04-27 18:16 39.31317 27.35923 35118 ft 448 kts 153°
2026-04-27 18:17 39.25878 27.39866 35119 ft 448 kts 153°
2026-04-27 18:17 39.20443 27.43791 35112 ft 448 kts 153°
2026-04-27 18:18 39.14996 27.47713 35106 ft 448 kts 153°
2026-04-27 18:18 39.09586 27.51604 35102 ft 448 kts 153°
2026-04-27 18:19 39.04142 27.55525 35090 ft 449 kts 153°
2026-04-27 18:19 38.98694 27.59444 35087 ft 448 kts 153°
2026-04-27 18:20 38.93251 27.63338 35079 ft 448 kts 153°
2026-04-27 18:20 38.87802 27.67240 35073 ft 449 kts 153°
2026-04-27 18:21 38.82378 27.71112 35066 ft 449 kts 153°
2026-04-27 18:21 38.76920 27.75001 35065 ft 449 kts 153°
2026-04-27 18:22 38.71465 27.78872 35062 ft 448 kts 153°
2026-04-27 18:22 38.66008 27.82739 35062 ft 448 kts 153°
2026-04-27 18:23 38.60553 27.86610 35058 ft 448 kts 153°
2026-04-27 18:23 38.55095 27.90475 35058 ft 448 kts 153°